Wind_Speed
25 32 36 36 38 40 41 42 41 41 40 41 40 39 38 37 37 35 33 30 26 24 23 22 22 22 22 21 21 21 21 18 12 10 7 10 13 12 14 13 11 10 12 12 11 9 9 9 6 5 4 3 4 3 5 3 3 3 3 2 2 3 4 4 6 6 4 5 6 6 5 8 6 3 1 3 6 4 5 5 3 4 6 1 2 16 34 32
23 27 34 37 40 43 43 43 42 42 41 41 40 39 39 38 37 35 33 31 28 26 24 22 21 20 20 19 19 17 16 14 8 9 13 12 12 15 17 15 12 11 12 13 12 11 9 7 4 7 4 2 3 5 5 3 2 2 3 1 4 5 5 4 6 6 4 7 8 6 5 7 7 6 4 4 2 3 6 4 4 5 6 5 9 23 32 29
20 23 27 35 41 43 43 42 43 43 41 41 40 39 39 37 37 36 33 33 31 28 26 23 21 19 17 17 15 15 13 8 3 10 19 15 11 17 20 16 14 14 13 15 14 14 14 5 2 6 4 2 2 4 4 2 1 1 3 1 5 5 4 4 5 6 6 5 11 8 5 6 6 5 3 5 6 5 6 4 2 2 2 6 10 21 27 26
17 20 22 29 37 43 44 42 43 44 43 42 40 39 39 38 37 36 34 33 32 30 27 24 22 19 18 16 13 14 11 5 3 13 22 19 14 18 21 18 16 17 16 19 18 18 19 10 3 4 4 2 2 3 2 2 1 1 3 4 6 3 3 5 2 3 5 4 10 9 5 6 6 2 3 8 7 4 7 8 8 9 10 9 9 17 23 23
16 19 21 25 33 42 44 42 42 42 43 43 42 40 39 38 36 35 34 33 32 30 27 25 22 20 19 17 14 15 11 3 6 14 22 21 18 19 21 19 17 18 19 20 20 20 17 8 4 4 4 2 2 2 2 2 1 1 4 6 6 2 4 6 4 3 1 0 5 9 7 6 4 1 4 11 9 6 7 8 10 13 15 15 15 18 20 20
17 20 22 25 30 40 42 40 42 42 42 42 42 41 39 38 36 35 34 33 33 30 28 26 24 22 21 18 17 15 8 2 2 11 22 22 21 21 21 19 17 17 18 19 19 18 12 5 5 4 3 2 3 1 3 1 2 2 5 3 5 4 4 5 5 4 3 4 7 8 7 5 6 3 5 11 9 6 6 8 10 13 18 20 20 19 17 17
21 22 23 24 28 38 41 39 42 42 42 42 42 42 41 39 37 36 34 33 33 31 30 28 26 25 23 20 18 8 3 4 3 7 21 22 22 23 21 19 19 17 17 20 18 13 8 6 4 5 4 3 3 4 2 5 2 4 5 4 5 5 5 5 4 4 4 5 7 3 5 8 9 5 4 8 8 7 5 6 12 14 18 20 17 16 16 19
22 24 24 24 26 35 41 39 41 43 42 43 42 42 42 40 39 37 35 34 33 32 31 30 28 26 25 22 13 3 3 5 4 5 18 24 23 25 23 20 20 17 18 20 19 14 9 7 4 4 3 3 2 3 2 6 6 5 6 5 3 3 4 4 4 5 5 2 2 2 6 7 8 4 4 8 8 6 2 6 12 13 15 15 14 14 15 17
21 24 24 25 25 30 37 40 43 45 44 43 42 42 42 40 40 37 36 34 33 33 31 30 28 25 26 19 8 3 7 7 3 3 16 25 26 27 26 22 22 18 18 19 21 20 10 5 4 2 3 3 1 1 4 4 4 4 5 5 3 3 4 2 3 5 4 1 1 5 5 2 3 1 3 8 7 3 3 8 11 13 13 12 12 13 15 15
21 22 24 25 26 26 30 38 44 45 46 45 42 42 41 41 40 38 36 34 33 32 31 30 28 27 25 15 6 4 8 9 5 3 15 26 28 28 26 23 23 21 18 18 21 20 9 8 8 4 3 2 2 2 3 3 3 6 6 5 3 2 3 2 1 4 3 1 2 7 5 4 3 1 3 7 6 4 7 8 10 13 13 13 11 12 16 17
22 22 24 26 28 28 27 33 41 43 46 47 45 42 41 41 39 38 36 35 34 32 31 30 29 30 24 12 6 4 5 12 7 4 13 25 30 31 27 24 23 22 19 16 20 21 16 18 13 5 3 1 2 2 5 3 4 8 6 3 3 4 3 1 3 3 1 0 3 6 2 4 4 0 6 7 6 6 9 9 10 12 12 12 12 11 13 16
26 25 25 27 28 28 29 32 35 41 44 45 45 42 41 41 39 38 36 34 33 32 31 30 30 31 22 8 7 7 4 9 9 5 10 22 30 30 26 24 22 21 20 16 18 21 23 24 14 5 2 3 5 1 5 3 2 6 3 4 5 5 3 4 3 2 2 1 3 5 1 4 3 6 8 4 6 6 8 10 9 10 10 10 11 9 10 15
28 28 27 28 29 27 29 31 34 40 44 43 43 42 41 40 39 38 36 35 33 32 31 30 31 30 18 4 7 14 9 7 9 6 9 18 27 24 21 22 21 19 18 18 20 22 25 24 14 5 1 3 5 1 4 2 2 5 3 4 3 4 4 6 2 3 4 2 1 4 3 5 8 11 8 2 7 7 7 8 8 8 7 7 8 8 9 13
30 32 30 27 30 29 27 29 36 42 44 43 43 42 41 40 39 38 37 35 33 32 31 31 32 25 12 2 3 14 15 8 8 10 11 16 21 19 18 22 20 17 16 18 21 22 25 25 15 4 1 2 1 5 8 5 2 3 2 3 1 1 4 6 2 5 5 2 3 4 4 5 8 11 7 4 8 9 8 8 8 7 7 7 8 8 9 11
32 33 34 30 30 31 27 27 35 45 45 44 44 41 40 39 37 36 35 36 34 34 34 31 29 18 5 3 2 11 18 11 10 15 14 14 19 16 15 20 17 15 16 16 18 21 24 21 11 3 1 0 1 3 6 5 2 1 3 3 1 3 4 7 2 7 6 1 3 5 4 5 7 9 6 5 8 9 10 9 8 8 8 8 7 8 8 9
35 34 35 33 30 31 30 27 32 42 45 45 45 42 41 38 36 36 35 35 34 35 34 26 20 12 3 3 3 8 14 12 13 16 14 15 19 16 15 17 12 11 11 11 18 20 20 15 5 2 1 1 2 2 3 4 4 2 2 3 1 3 3 4 2 4 4 2 1 3 3 4 5 6 6 3 9 9 9 9 9 9 8 8 7 8 8 7
38 37 35 34 32 32 32 30 32 39 44 45 45 44 42 38 37 36 34 34 32 30 27 20 16 9 1 3 5 7 9 11 16 17 17 17 17 17 18 13 8 11 9 7 14 14 11 9 3 2 2 1 2 3 3 5 5 3 1 3 3 3 3 2 4 4 3 4 3 4 4 6 6 5 6 1 7 8 9 9 9 9 8 8 7 7 7 8
41 40 37 36 34 34 33 34 37 40 44 46 44 45 45 41 40 36 33 33 28 23 16 12 15 8 4 7 6 6 11 14 17 20 21 17 12 18 21 11 8 12 9 5 7 7 4 4 4 5 4 4 4 6 7 6 5 3 2 3 3 2 3 3 4 4 5 3 4 6 5 9 10 7 5 3 3 7 9 8 7 8 8 7 7 7 8 9
41 42 40 37 35 36 36 39 42 42 47 48 45 48 46 39 33 29 32 30 19 11 7 7 11 4 3 10 6 7 15 17 16 17 20 15 11 16 17 11 10 10 7 3 3 5 4 3 5 7 6 7 8 7 6 4 5 6 4 4 4 4 3 4 5 5 6 5 5 7 6 10 12 9 8 6 2 5 8 6 6 7 7 7 7 8 8 9
39 42 42 39 38 38 39 43 45 45 48 49 48 41 30 22 15 11 17 20 11 4 5 10 11 2 4 6 9 13 15 14 10 11 20 19 14 14 9 7 8 5 7 7 5 4 5 5 6 7 8 9 9 7 5 6 5 3 2 3 4 5 4 4 4 5 3 5 6 8 8 10 10 9 9 5 1 4 8 7 8 7 6 7 8 9 10 10
38 41 41 40 40 40 41 44 46 48 50 58 51 24 13 16 10 11 14 10 4 1 7 17 10 2 3 4 13 19 13 6 5 10 21 21 16 13 5 5 9 4 6 8 5 2 4 7 7 8 9 9 8 8 7 7 6 4 3 4 4 5 5 5 3 4 0 4 5 4 6 10 10 10 9 3 2 7 10 9 9 9 8 8 8 10 10 9
42 42 42 41 41 42 44 45 48 52 53 61 46 13 12 12 5 20 21 8 5 5 7 17 8 4 3 4 10 15 9 5 6 10 19 20 14 10 5 6 9 7 6 6 5 3 4 7 8 10 10 10 10 10 9 6 6 5 4 2 4 3 3 4 3 3 1 3 4 1 4 9 10 10 9 4 6 8 10 10 10 10 9 9 10 10 9 9
46 46 45 43 43 45 47 47 51 52 43 45 33 10 13 14 18 36 24 7 5 5 5 12 7 2 3 3 5 8 9 7 7 10 18 18 10 6 7 9 9 8 7 8 8 7 6 8 11 12 10 13 12 11 8 5 5 5 3 2 4 2 2 4 4 2 1 1 2 1 1 6 7 7 8 8 9 9 9 9 9 8 10 11 11 9 10 11
50 49 48 47 47 47 49 50 51 47 39 35 24 12 22 32 41 43 18 6 4 3 2 7 6 2 3 5 5 6 7 5 5 10 17 16 8 5 8 10 9 8 8 12 12 11 9 7 10 10 9 13 12 9 9 6 5 5 5 6 4 3 5 4 2 2 2 2 1 3 4 6 5 5 9 7 6 8 7 7 9 9 10 11 8 8 10 12
54 53 52 51 49 50 53 48 43 46 41 28 18 20 33 41 45 38 16 5 2 3 4 2 2 2 5 8 7 6 3 1 1 8 15 14 9 6 6 6 8 10 12 13 11 10 9 6 9 10 7 10 10 9 9 7 5 5 6 9 8 7 5 2 4 4 4 3 3 1 1 6 4 4 9 6 3 7 6 6 10 11 11 10 8 10 10 9
58 56 56 55 53 56 50 32 34 47 35 17 22 32 38 42 41 30 12 4 2 1 1 3 4 8 10 7 6 6 5 2 2 6 13 12 7 5 5 4 3 7 13 10 5 5 5 4 10 12 9 10 9 8 9 8 6 5 6 9 8 5 5 5 6 4 2 3 3 2 4 5 6 4 7 4 5 9 6 6 11 11 10 10 10 11 9 8
62 59 60 59 57 59 41 19 32 40 22 17 33 41 40 43 36 19 7 2 3 4 4 4 4 11 12 8 11 9 3 3 3 2 10 9 3 1 5 6 2 4 8 6 3 3 4 6 8 10 9 9 9 7 8 8 7 5 5 6 8 6 7 7 7 4 2 3 3 4 3 3 5 5 6 3 4 9 8 8 11 10 11 11 11 11 9 10
65 64 65 61 62 65 47 32 36 28 24 37 44 43 43 39 25 9 5 3 3 5 6 3 4 10 7 5 11 5 1 8 7 3 11 10 3 2 3 7 5 7 7 7 8 2 4 10 11 12 9 6 7 7 9 9 5 6 5 6 7 6 6 6 6 3 1 1 3 4 1 2 5 6 6 4 2 7 8 9 10 10 12 12 12 11 11 11
70 69 68 65 67 68 53 45 43 32 39 54 49 47 44 27 11 5 3 5 3 4 5 6 7 8 5 3 5 1 2 5 4 5 11 10 8 2 3 6 6 9 3 3 7 2 0 7 9 12 10 6 8 8 10 12 6 4 5 6 4 4 5 4 5 3 2 1 4 6 2 2 5 6 4 3 2 6 8 9 9 9 10 10 10 11 10 8
74 72 72 69 64 59 42 35 40 41 49 56 49 49 41 17 6 5 7 6 4 3 4 6 7 9 11 8 4 3 1 2 2 7 10 6 7 3 2 2 6 6 1 3 3 2 2 0 2 5 5 5 6 4 4 8 7 5 6 6 6 5 4 3 2 3 1 3 6 7 4 2 4 6 4 4 4 6 6 7 8 8 8 7 8 8 8 7
78 75 76 71 61 53 32 16 29 45 52 54 48 41 26 7 3 7 8 6 5 5 5 7 9 12 17 15 8 6 3 2 4 9 9 5 5 4 2 3 4 4 3 2 2 3 4 2 1 1 2 2 5 4 3 1 5 7 4 4 4 3 3 3 4 2 2 5 6 5 3 4 4 5 5 6 6 6 7 7 9 9 9 7 7 7 7 6
80 79 79 73 63 55 36 26 43 55 57 57 43 22 10 4 4 5 7 7 6 7 8 11 15 16 19 18 12 10 7 3 5 10 10 7 6 6 6 6 5 5 5 6 4 1 3 1 1 1 1 3 6 4 2 4 0 4 4 5 4 1 1 0 3 1 3 5 4 3 2 3 5 7 9 9 11 10 9 8 9 8 8 8 6 6 5 5
82 81 78 72 64 52 40 45 59 62 60 54 31 9 5 6 6 6 9 7 8 12 12 13 17 19 20 16 11 11 9 5 7 9 9 8 7 6 6 6 7 7 5 5 5 3 1 4 2 1 1 2 6 6 3 0 1 4 6 5 5 2 2 3 4 1 3 5 3 2 2 3 3 6 11 14 15 12 6 7 9 9 8 8 6 5 5 5
83 81 73 68 61 49 44 52 60 63 58 39 17 8 9 7 6 8 10 6 7 13 13 14 17 18 17 12 10 12 8 5 9 10 9 8 7 8 8 9 8 5 5 5 5 6 7 4 2 4 1 1 4 4 5 6 4 4 5 6 5 5 4 4 3 3 4 3 2 2 2 3 3 4 8 10 11 9 5 5 7 7 7 6 4 4 5 6
82 77 69 60 50 46 51 57 63 65 47 21 10 10 9 8 6 8 9 6 8 11 13 16 18 16 13 8 10 12 5 5 11 10 9 10 9 10 9 9 9 5 7 7 4 5 8 5 3 2 1 3 3 2 2 6 5 3 3 5 5 5 5 3 3 5 4 1 2 2 2 4 4 6 9 6 6 8 6 5 5 6 6 3 3 6 5 5
72 64 56 46 40 48 57 60 65 62 35 13 11 10 7 8 9 9 10 11 13 16 18 18 15 14 11 4 7 10 2 3 10 8 7 9 9 11 10 7 8 7 8 9 3 2 6 2 4 2 1 2 3 2 0 3 5 2 2 4 5 4 7 4 2 1 3 1 3 2 3 5 3 7 9 5 6 8 6 6 5 6 5 2 5 6 5 6
53 44 36 30 39 55 62 61 62 50 24 12 13 11 8 8 8 9 11 13 17 20 19 14 11 13 13 7 8 13 5 4 9 7 6 7 6 11 12 7 7 10 9 7 3 3 5 2 3 1 2 2 1 3 1 1 4 4 4 6 3 3 3 3 2 2 2 3 4 0 4 4 1 3 6 7 7 8 8 8 7 6 5 5 7 6 6 6
38 31 20 24 46 58 63 65 56 32 12 11 14 12 9 6 5 8 9 13 18 19 16 11 9 11 14 13 12 16 13 9 10 9 8 8 5 9 15 9 5 9 8 4 3 2 4 3 3 1 2 2 2 3 0 2 2 3 4 3 3 3 2 2 3 2 1 4 4 3 4 4 4 4 4 5 6 8 8 7 6 7 7 7 7 7 7 6
30 21 7 27 55 58 62 62 41 17 8 12 13 9 7 4 5 11 14 17 18 17 15 11 10 10 11 14 14 16 15 11 13 11 7 9 6 7 16 11 5 9 8 5 5 3 3 4 1 2 1 1 3 2 4 2 1 2 0 0 1 2 4 3 3 3 3 4 4 4 4 4 6 6 6 8 9 9 10 7 6 8 9 8 8 8 7 6
18 11 4 34 59 58 60 46 22 11 9 12 11 7 8 6 6 14 20 21 16 10 12 14 14 12 11 12 13 14 12 9 13 10 5 8 5 5 12 12 7 8 6 4 5 4 2 4 2 1 2 1 1 2 6 7 4 2 3 4 2 1 2 2 1 3 4 3 4 3 4 6 6 5 9 11 11 11 10 7 6 8 9 8 8 7 7 6
10 8 6 37 60 59 48 23 9 11 9 11 11 6 9 7 6 15 20 21 13 2 7 16 16 14 13 12 12 12 10 7 11 10 3 7 8 4 7 10 10 9 5 4 5 5 2 3 4 3 1 3 4 3 5 6 5 4 4 6 7 3 4 4 4 1 2 3 5 4 5 8 6 5 9 10 10 9 7 5 6 8 8 7 7 7 7 7
9 7 9 37 59 52 31 10 6 10 6 8 8 3 6 6 8 15 17 16 11 2 6 13 13 13 13 12 12 12 11 8 11 11 5 7 10 5 6 11 13 13 9 5 4 4 3 4 5 2 3 5 4 1 3 3 2 2 2 3 4 2 4 6 6 4 1 3 3 3 5 9 5 6 8 9 8 6 4 5 6 7 6 7 6 6 6 6
8 8 15 41 58 43 19 9 10 8 5 6 4 1 3 6 11 16 14 13 9 5 8 9 11 13 11 11 13 13 12 8 9 11 5 5 7 5 9 15 16 14 10 5 5 4 3 4 4 1 2 3 4 3 3 3 3 2 3 1 2 3 3 5 5 4 3 4 3 2 6 9 4 4 6 5 5 4 4 5 6 6 5 6 6 6 6 6
8 9 12 34 53 38 14 11 13 9 7 7 5 3 1 3 11 16 16 15 9 8 11 10 13 15 12 13 16 17 16 9 8 10 5 5 6 5 11 18 18 16 11 8 9 7 3 3 5 3 2 3 3 3 2 0 2 2 3 2 4 4 4 3 1 2 2 6 7 5 9 8 2 0 1 4 6 5 6 5 5 5 5 5 5 5 5 5
9 7 5 17 31 23 7 7 14 13 12 14 13 8 3 3 8 13 17 14 5 8 11 9 12 13 12 15 15 17 18 9 6 8 3 4 5 2 9 19 19 16 13 11 12 8 5 5 5 6 6 6 6 6 5 4 2 2 4 5 6 7 7 5 2 2 7 5 7 9 10 3 3 5 5 5 4 4 6 6 4 5 5 4 4 4 5 5
9 5 6 9 10 7 1 1 9 11 13 16 13 7 7 7 5 7 13 10 4 6 7 6 11 11 12 17 13 13 16 5 3 8 7 7 6 1 6 16 18 15 12 13 14 8 4 4 7 11 12 11 9 6 7 10 8 8 9 8 8 8 8 6 3 6 7 3 5 12 8 2 1 1 4 4 4 4 6 6 5 5 4 3 3 4 4 5
6 6 9 8 5 6 1 2 7 9 11 14 10 7 10 12 9 6 6 5 6 9 7 5 12 13 14 18 14 12 16 6 4 10 10 7 4 1 1 7 11 10 11 13 12 8 5 5 9 11 10 7 6 6 9 14 14 14 13 12 11 9 9 10 11 9 5 4 9 8 1 5 7 5 6 7 5 5 6 6 5 5 5 3 3 4 4 5
3 6 8 6 7 9 6 6 11 12 13 14 7 6 11 14 14 12 4 1 7 12 8 6 14 19 21 21 15 12 14 8 5 9 8 5 4 3 3 2 3 5 8 9 8 5 5 7 8 8 6 4 4 6 10 13 11 11 13 15 14 13 14 16 17 9 7 7 14 4 4 13 8 7 9 9 6 7 7 5 4 4 5 4 5 5 5 6
3 5 3 1 4 11 12 14 19 19 18 15 6 5 13 17 17 12 4 4 8 10 11 12 17 21 24 22 16 13 14 12 9 8 7 8 9 7 5 3 1 1 4 6 5 2 4 5 4 7 6 4 4 6 10 12 8 7 10 14 15 18 20 21 19 13 10 16 17 6 11 18 6 8 11 9 8 9 5 3 4 4 6 5 5 6 6 8
4 5 3 3 4 8 9 12 17 17 15 12 7 5 11 18 19 11 3 8 14 11 11 18 21 21 23 22 18 17 20 20 16 13 10 10 9 7 6 5 4 3 3 5 4 1 2 4 3 6 4 4 4 5 7 10 9 7 9 13 16 18 19 18 16 12 12 18 17 10 15 17 5 9 10 6 5 4 3 4 6 6 6 4 5 6 7 8
2 2 4 6 7 9 11 11 13 13 11 10 8 6 10 16 18 12 2 3 10 11 11 19 22 17 17 19 18 19 22 20 20 20 19 18 15 11 7 6 9 9 4 5 5 2 3 3 1 6 5 6 3 6 6 4 3 3 10 16 19 18 15 13 10 9 11 15 12 9 14 13 5 6 5 3 3 4 6 8 8 7 6 6 7 8 9 10
2 2 4 5 6 8 11 11 12 12 11 11 8 4 7 12 13 12 7 2 1 5 10 18 20 14 14 18 19 18 17 14 15 15 14 14 13 9 6 9 16 16 10 8 5 3 6 6 2 5 7 5 2 7 8 6 4 6 13 16 17 14 10 8 8 11 15 13 9 11 15 9 4 5 5 5 6 8 9 9 8 8 7 7 8 9 10 11
Wind_Direction
228 211 208 208 204 201 198 194 191 190 191 192 191 192 192 192 192 193 193 193 193 190 185 184 185 186 186 186 184 182 184 188 197 207 217 217 208 187 170 162 153 158 163 151 147 136 87 75 89 121 146 51 3 344 351 346 64 57 80 128 238 192 204 193 176 198 178 184 205 215 183 141 155 188 176 47 51 90 84 39 28 7 18 121 191 157 163 169
242 225 212 210 207 203 198 193 192 191 191 192 191 192 192 192 193 193 194 194 195 193 186 182 182 182 182 182 182 181 183 189 203 229 226 214 203 191 173 154 142 148 158 151 146 137 94 30 34 89 86 36 354 352 352 336 65 99 124 155 231 201 218 205 180 206 195 178 182 194 186 158 166 171 146 126 155 141 105 37 11 38 34 67 125 147 159 169
237 236 224 216 208 205 201 194 192 191 192 192 191 192 192 192 193 193 194 195 195 194 190 186 183 181 179 178 178 177 172 165 196 238 223 208 194 189 176 156 143 146 154 146 137 128 114 75 18 91 65 37 38 2 352 334 327 183 149 229 243 214 251 249 185 207 235 193 166 182 185 166 179 169 140 141 168 181 156 158 110 117 139 118 134 149 160 170
227 232 236 227 209 204 203 195 192 192 192 192 191 191 191 192 192 193 193 194 194 194 193 191 187 186 183 178 173 168 148 114 244 228 215 204 190 181 171 159 145 144 142 130 119 117 119 107 65 86 73 71 43 10 322 278 271 217 164 206 234 213 287 272 253 244 260 226 173 161 138 167 193 181 151 139 144 221 215 195 175 171 167 153 154 157 164 172
223 224 233 233 213 205 204 195 192 192 191 192 191 191 191 191 192 192 192 192 192 193 194 191 190 188 180 173 166 158 137 104 235 216 212 204 189 178 170 159 149 148 141 130 116 108 116 98 52 66 59 104 67 39 260 261 87 270 227 213 231 247 282 278 327 330 327 161 167 144 149 177 166 149 170 157 166 222 218 204 184 167 164 164 164 164 169 176
226 225 227 232 219 208 204 198 194 192 192 192 191 191 191 191 192 191 190 190 190 191 191 189 188 182 173 166 164 162 158 199 228 194 202 202 192 180 169 160 150 150 147 140 124 109 107 65 49 83 70 99 101 181 252 326 77 267 266 241 238 216 241 292 341 339 56 129 173 165 173 146 132 186 190 177 196 227 214 190 175 168 168 165 161 164 170 178
226 227 225 230 224 210 203 199 197 194 192 193 191 191 191 190 191 191 190 188 188 188 187 186 184 178 170 164 161 164 202 254 314 182 186 191 193 181 168 160 149 151 152 139 122 110 107 86 89 107 108 119 139 214 285 1 344 256 267 276 255 196 205 287 315 341 48 168 211 180 143 139 160 183 164 198 227 242 238 176 160 161 161 157 158 169 176 181
219 224 224 224 226 216 208 202 196 193 193 192 192 191 190 190 189 190 189 187 187 186 185 184 182 178 173 164 153 157 239 245 283 188 178 180 183 177 171 164 153 153 152 142 129 124 116 108 127 107 125 154 155 223 16 8 316 250 240 253 257 204 221 288 312 349 34 187 262 117 153 167 183 169 153 212 238 246 239 139 146 146 150 159 169 177 181 185
220 222 222 219 222 217 212 207 198 194 194 191 191 190 188 188 188 188 188 187 186 184 184 183 182 178 173 163 138 173 210 214 219 188 181 175 172 173 174 166 159 154 142 142 137 132 122 122 154 142 154 150 137 233 84 47 295 242 236 241 231 227 229 277 325 336 11 4 105 150 182 228 218 187 198 220 225 222 91 124 144 143 156 172 177 182 184 187
229 224 222 220 220 219 216 209 201 197 194 190 190 189 187 186 186 186 186 186 185 183 182 182 179 172 164 154 138 188 204 193 162 145 180 174 168 172 175 166 163 158 138 134 140 139 135 146 158 162 143 133 205 222 85 130 251 288 283 252 235 262 243 147 176 290 348 344 182 167 198 276 309 7 228 231 209 153 105 130 151 152 168 178 181 188 189 192
234 229 224 224 222 222 220 211 202 197 195 190 187 187 186 184 184 183 183 183 182 181 181 179 173 167 159 149 169 193 198 194 181 116 168 175 173 175 176 169 166 161 144 137 153 158 152 149 143 128 131 144 175 323 330 213 240 292 278 241 295 336 298 159 153 243 344 309 175 145 163 301 338 323 228 229 187 159 133 146 165 166 176 181 184 189 192 201
233 231 229 229 224 219 218 218 209 198 195 191 184 185 185 182 182 180 179 179 179 180 180 175 171 167 154 145 206 199 171 199 204 135 152 180 181 180 178 172 172 167 152 147 164 167 159 152 136 110 169 163 140 47 312 232 244 282 220 209 298 2 307 239 175 184 137 185 178 132 127 297 264 224 242 234 167 162 144 157 174 179 183 183 187 189 196 206
232 233 233 230 226 223 216 219 218 202 195 189 184 184 182 180 179 177 176 175 174 175 174 170 170 166 153 149 224 201 195 206 208 175 148 180 186 184 182 177 179 177 160 150 157 164 163 154 136 127 170 134 144 212 292 259 250 266 203 194 279 13 304 254 203 142 145 186 153 139 211 256 243 236 248 212 155 149 149 173 182 185 189 187 190 194 204 207
233 234 233 231 230 228 218 218 218 204 193 187 182 181 179 176 174 174 175 172 168 168 168 166 167 162 155 187 204 199 214 220 208 192 163 174 179 178 184 180 181 183 169 153 147 150 155 149 133 120 42 100 147 316 310 299 258 253 227 202 210 145 267 281 243 149 161 203 84 128 218 251 255 249 243 191 167 162 172 190 190 190 194 192 196 199 208 210
233 232 231 232 231 228 219 214 209 197 189 183 178 177 174 172 173 172 169 165 164 166 162 160 163 151 140 248 197 196 209 213 209 196 182 180 171 168 185 181 180 183 177 171 158 147 147 143 126 103 20 176 214 314 299 289 295 258 213 253 301 166 253 301 259 165 170 212 84 138 218 266 265 265 261 202 181 179 184 195 195 196 199 196 202 204 211 219
230 229 230 229 227 227 217 207 204 191 183 182 178 176 171 167 169 165 160 158 158 160 154 153 162 149 125 211 165 177 193 201 204 194 190 194 182 171 171 169 171 176 175 180 170 156 147 139 111 115 146 193 179 207 269 284 298 315 197 236 250 168 236 306 279 210 173 143 119 172 221 265 263 287 310 209 187 190 191 200 202 201 205 201 202 207 210 220
228 227 227 225 223 222 212 203 203 192 182 180 176 171 166 161 163 161 158 156 152 149 144 139 146 142 107 158 153 174 179 187 191 182 176 186 188 170 156 152 156 152 132 135 155 152 147 143 127 146 168 220 177 176 220 239 249 293 306 227 228 180 196 255 274 261 159 145 201 200 220 247 260 298 328 275 185 196 202 205 208 207 211 210 206 210 211 213
226 225 224 223 220 217 209 200 201 195 182 176 171 166 161 157 160 154 144 141 138 138 136 125 131 137 237 189 167 169 163 170 179 178 174 180 189 169 158 149 140 135 111 98 142 145 154 155 148 158 189 214 204 198 205 213 206 206 199 200 240 235 209 225 250 221 157 155 210 194 224 251 262 279 296 296 191 198 221 217 215 216 214 218 213 212 214 213
223 225 222 221 218 213 208 199 199 194 178 173 164 153 145 141 144 139 133 134 135 144 153 163 161 153 203 176 158 142 154 161 168 174 172 178 190 167 153 142 136 137 136 143 167 167 153 128 159 177 193 203 211 213 212 216 191 188 197 189 201 219 237 228 242 241 173 161 218 204 219 243 251 260 262 277 224 200 242 250 236 228 220 222 219 219 219 215
222 222 219 220 216 211 207 200 198 188 174 164 150 136 131 131 128 131 142 148 163 183 133 164 184 125 69 146 141 133 139 147 154 164 167 175 177 152 131 129 138 147 164 166 180 181 153 159 187 188 188 198 211 222 230 236 226 219 249 241 219 210 243 243 246 285 171 159 232 216 221 245 247 256 255 255 252 236 248 249 241 234 227 223 221 224 221 219
221 218 217 217 213 209 205 201 196 187 172 158 148 139 149 156 151 167 165 146 143 24 131 159 169 81 60 121 139 135 125 128 141 152 166 175 169 153 151 148 147 178 184 162 152 145 157 182 197 185 177 183 205 229 237 240 249 269 269 274 264 220 237 258 251 298 101 164 250 239 225 254 254 253 260 226 183 240 234 229 235 231 231 231 225 228 225 228
225 221 218 215 212 207 202 200 194 185 170 157 156 164 166 164 139 146 144 108 78 40 128 159 151 40 55 104 147 143 121 118 135 153 171 177 174 170 177 159 161 180 179 157 137 136 186 206 199 184 171 168 197 225 230 242 247 244 257 274 271 244 243 278 269 285 27 168 257 291 210 252 259 253 261 232 208 239 232 220 224 220 225 232 226 228 227 234
227 221 217 216 211 203 200 197 186 180 173 160 160 167 151 144 129 133 124 79 109 59 93 160 166 92 93 120 171 155 137 143 148 172 180 176 178 179 160 160 172 171 171 182 173 166 197 210 194 186 175 173 194 215 216 244 252 225 210 212 260 261 196 254 257 227 64 140 196 115 251 266 269 272 271 238 221 241 242 229 232 223 224 231 227 223 217 221
226 217 214 213 207 201 198 190 177 174 175 165 155 145 138 135 135 134 113 59 129 34 31 169 168 141 134 140 152 146 146 153 145 173 184 176 165 161 162 161 163 170 187 193 185 187 206 200 177 180 185 182 187 200 204 221 248 239 211 207 238 223 203 226 207 135 24 1 112 97 350 298 258 261 264 248 229 245 248 239 248 245 235 240 245 238 224 218
221 213 210 208 204 198 191 182 174 170 172 165 142 137 141 140 142 137 112 64 123 351 328 203 175 203 162 130 130 128 107 334 162 170 182 183 162 140 163 167 167 185 190 187 185 199 219 197 160 166 180 184 183 194 199 195 222 254 228 213 219 207 199 181 132 92 47 323 286 144 306 292 291 263 252 267 299 262 245 226 240 245 241 242 247 242 233 228
215 209 205 204 200 191 182 181 179 168 166 167 148 148 148 145 149 145 113 49 152 157 271 171 185 190 166 131 119 100 65 313 282 161 175 190 183 147 160 171 179 189 179 175 183 206 218 160 161 173 174 178 186 199 199 183 193 247 240 211 205 176 143 142 152 121 120 232 287 94 173 254 316 299 257 288 308 273 267 246 245 244 242 237 233 236 231 229
209 204 200 200 195 184 176 179 176 164 162 173 157 154 153 151 157 156 101 53 190 156 142 169 197 176 165 155 143 126 113 166 97 176 193 195 199 133 175 174 140 173 164 153 191 210 155 138 164 177 170 180 189 200 199 175 174 229 241 180 160 150 154 166 165 154 187 217 335 24 134 222 293 275 269 312 305 286 288 266 255 245 241 238 234 238 231 224
202 198 195 195 190 184 181 170 166 170 177 169 157 156 158 157 161 145 104 170 190 135 140 173 170 149 141 137 148 143 267 146 119 206 196 192 229 0 196 197 166 160 163 167 193 231 137 164 180 175 171 188 190 196 188 167 182 233 209 154 148 152 157 158 150 138 25 95 300 309 121 190 269 276 299 337 304 293 286 262 256 246 238 237 236 236 232 229
195 192 191 190 186 187 185 169 167 180 173 162 156 157 158 155 143 103 158 189 139 125 140 144 144 134 108 99 155 241 347 134 126 150 159 188 231 252 199 201 153 149 170 183 182 213 190 183 182 172 179 192 188 201 185 171 194 215 149 114 83 82 88 100 122 112 51 80 243 256 206 191 270 282 303 337 296 271 270 267 262 250 241 239 241 241 237 238
188 187 187 184 183 185 184 173 173 172 162 157 156 154 151 142 122 144 189 178 125 142 145 152 164 152 143 143 174 215 127 81 85 130 139 174 210 232 231 142 109 134 104 28 146 219 308 121 136 156 181 192 176 182 184 181 178 137 107 83 60 44 48 51 65 89 86 269 251 244 219 190 264 280 252 227 230 226 241 273 278 272 269 256 251 249 241 236
182 182 182 180 179 179 176 170 165 157 154 153 150 146 141 132 174 175 174 149 117 139 149 152 151 147 154 158 166 178 152 64 119 149 158 166 175 198 203 131 100 114 124 104 171 308 7 80 148 150 173 149 116 96 20 290 165 127 96 100 89 7 16 30 1 43 190 255 261 249 206 169 224 263 246 236 248 229 218 249 266 275 283 273 260 255 243 228
178 179 178 178 178 177 175 163 155 153 152 148 142 138 134 139 206 186 149 143 143 160 166 158 153 157 164 164 161 162 155 146 163 161 163 171 186 197 195 188 170 150 178 187 176 359 24 139 259 321 221 141 122 127 33 360 33 129 115 122 128 334 23 190 282 283 222 249 260 246 198 192 231 250 255 257 262 252 226 220 242 260 275 276 264 254 245 222
175 175 175 177 176 177 175 162 154 152 150 145 139 134 138 161 199 171 149 162 166 164 165 160 160 161 162 162 160 156 150 155 171 168 166 169 185 212 229 222 189 165 179 175 141 139 236 292 303 101 295 156 150 166 156 89 246 151 143 143 151 141 120 208 243 273 256 260 271 258 241 258 268 258 250 245 251 259 243 220 234 243 255 265 257 241 237 227
172 171 172 175 175 175 169 157 153 152 149 143 137 140 153 174 189 159 161 174 154 153 157 154 152 153 158 161 159 157 149 157 170 164 160 166 183 207 223 223 205 157 124 152 165 171 189 241 233 171 186 166 170 190 173 156 166 180 163 143 158 166 161 197 214 210 238 267 279 267 238 203 198 248 248 237 254 279 283 254 252 251 257 269 270 251 234 235
168 168 169 171 173 171 161 155 155 153 149 141 141 155 168 171 168 167 169 156 139 144 145 146 144 147 160 158 160 171 162 156 171 164 165 179 190 197 203 209 203 156 136 171 192 174 179 212 280 253 158 127 163 229 149 132 159 216 140 127 183 186 149 153 189 185 185 231 249 223 233 213 208 276 277 255 267 282 283 295 304 284 283 291 250 241 230 238
163 164 166 167 166 163 159 158 156 153 149 142 148 168 187 174 173 178 169 157 155 150 144 148 148 150 162 151 158 182 215 117 161 164 176 188 200 203 202 205 200 185 168 166 159 160 168 207 318 336 69 116 154 195 126 141 177 190 122 177 213 155 116 123 200 149 105 197 250 200 251 284 318 297 290 293 286 282 284 290 280 269 286 279 233 234 233 239
157 158 161 164 162 160 159 158 157 154 150 148 158 175 186 186 183 171 164 155 150 147 144 151 159 158 163 158 165 180 176 121 160 171 173 178 208 207 201 215 202 192 189 167 163 198 155 147 317 37 146 247 148 136 9 16 141 132 170 202 188 112 96 113 168 3 58 227 271 225 227 276 315 271 309 326 292 278 273 262 252 255 263 253 242 239 238 239
150 150 151 161 162 160 158 157 156 153 147 156 171 180 179 185 169 145 147 145 142 146 148 153 166 169 167 164 172 178 167 155 174 181 171 177 219 202 189 205 204 188 202 165 140 208 137 122 310 354 170 279 16 105 131 339 120 147 196 198 132 156 208 135 169 206 178 229 281 292 250 252 204 218 298 301 258 258 264 254 245 246 237 234 240 242 244 247
144 147 143 162 161 159 158 156 154 150 149 165 178 183 176 185 161 145 148 151 149 151 156 162 164 168 175 168 165 173 173 170 173 177 180 187 224 211 183 188 192 186 197 160 141 190 134 124 256 293 240 302 18 105 181 205 354 29 102 230 81 149 180 173 170 166 170 214 254 286 285 254 222 213 219 238 241 247 258 255 240 239 233 226 227 229 232 228
143 144 136 162 160 158 156 153 149 155 163 174 181 175 170 181 167 156 156 157 158 157 162 167 161 158 171 168 159 168 176 172 171 180 200 183 199 237 191 180 172 175 182 143 138 164 136 125 174 283 358 155 184 203 187 178 173 160 162 188 206 101 108 157 177 135 141 179 208 252 275 257 245 211 197 218 235 242 250 249 239 242 240 233 224 219 218 210
146 136 148 164 160 155 153 148 149 165 169 179 178 167 167 164 141 158 162 159 160 171 157 162 162 158 161 164 162 168 165 160 174 181 200 187 185 223 202 174 153 154 150 124 147 167 152 117 141 153 153 192 223 239 187 177 179 177 185 195 195 164 120 172 226 210 130 179 185 196 254 257 245 204 197 211 225 239 246 233 238 250 247 243 232 217 211 204
146 139 147 160 158 152 148 142 158 169 183 178 166 144 155 141 137 161 168 162 160 140 144 159 163 156 158 164 162 166 164 159 178 182 184 193 187 190 189 161 148 159 158 141 168 173 127 104 118 157 212 212 237 251 135 149 139 148 225 217 195 183 139 167 210 221 197 223 167 133 255 260 242 198 202 212 221 238 240 215 237 260 257 249 238 216 209 211
138 129 140 156 158 151 140 151 164 174 188 162 141 107 136 141 155 161 166 170 169 152 150 161 161 156 161 163 154 161 168 162 183 188 167 167 191 201 181 161 153 163 161 144 171 164 105 103 113 98 310 309 319 356 58 78 87 178 242 194 158 208 150 150 191 183 182 219 174 144 259 262 256 205 203 229 255 268 262 224 228 258 272 257 235 211 203 204
128 117 135 160 162 157 148 163 167 170 166 153 159 171 103 137 163 164 168 176 178 162 159 163 165 162 160 159 158 165 171 170 189 191 161 157 193 191 172 168 163 167 177 181 178 173 166 143 123 108 49 9 340 320 294 225 104 184 228 196 180 168 120 128 171 118 219 223 170 184 248 251 251 24 31 327 316 300 279 250 222 242 270 266 239 210 194 182
131 116 124 162 167 165 160 164 166 165 162 165 173 176 156 152 176 177 172 173 180 163 158 160 162 153 146 155 160 167 172 167 170 178 155 151 180 173 173 177 174 177 188 182 165 161 174 170 146 144 163 191 205 217 213 177 136 196 201 197 200 177 166 180 130 161 233 219 157 203 241 246 63 35 17 341 313 296 286 281 253 240 251 260 233 198 184 176
139 129 139 151 165 173 162 137 164 162 160 165 170 173 162 155 181 193 171 171 190 153 135 137 143 131 140 154 151 165 175 150 93 164 167 159 169 273 193 184 185 185 173 159 154 143 136 175 185 185 193 199 194 190 163 143 157 205 195 185 198 197 187 172 146 204 209 138 196 228 245 330 8 338 325 294 257 251 273 285 286 275 277 272 224 192 183 180
139 144 152 146 145 164 140 77 151 157 164 168 165 171 170 159 163 182 177 191 184 149 118 130 146 140 152 157 149 166 175 147 91 159 164 158 157 23 133 180 194 182 148 151 162 139 120 194 201 196 205 201 173 166 158 158 180 197 186 186 195 191 183 188 211 216 140 131 240 233 179 262 241 214 251 268 263 264 270 275 288 292 283 259 197 177 172 171
135 143 160 152 144 165 168 155 161 163 171 175 160 152 168 163 165 174 182 221 175 155 135 146 164 161 161 161 155 159 166 153 133 156 153 145 141 106 76 94 220 193 148 162 178 143 148 198 197 183 201 213 170 158 162 173 191 189 182 191 192 186 193 206 221 213 134 209 243 197 187 245 223 176 222 233 233 255 260 256 261 257 250 229 178 169 175 182
110 118 158 52 129 166 166 162 166 167 171 177 163 153 170 170 170 174 160 144 168 170 157 160 172 168 162 162 154 152 166 167 166 174 165 155 154 144 132 132 237 263 133 155 182 166 169 194 179 159 179 226 208 172 169 176 181 180 191 199 194 196 203 208 218 211 192 232 246 231 249 259 226 175 213 212 211 228 231 227 221 217 232 217 174 179 190 196
130 138 156 70 104 151 142 147 163 166 170 176 172 176 178 174 172 169 162 166 170 179 173 165 169 168 164 164 158 165 179 175 167 170 157 146 156 161 160 166 166 138 126 152 175 224 199 198 159 128 149 237 220 163 174 184 180 185 203 210 208 208 211 213 218 209 208 237 247 247 262 267 224 177 204 204 198 191 179 226 233 235 237 194 169 199 209 209
121 151 148 124 128 142 137 144 160 163 170 180 183 185 181 181 176 158 137 199 169 175 178 163 160 160 161 166 169 175 181 174 165 165 160 158 170 176 173 169 154 144 143 161 160 141 149 173 87 108 157 238 215 140 161 173 151 218 233 223 213 208 210 214 214 200 207 229 240 247 256 255 208 168 178 140 130 169 212 235 243 249 233 178 183 212 215 217
101 97 101 103 110 136 148 152 160 170 180 182 181 173 170 181 176 152 140 358 45 159 160 149 148 150 159 174 183 180 175 165 156 159 158 155 160 157 145 154 157 156 160 165 156 144 148 147 132 146 172 249 247 141 140 105 79 263 247 220 206 204 203 208 221 218 215 216 216 229 241 237 175 150 142 144 184 202 216 225 233 244 228 193 205 217 217 223
Height
736 738 741 743 746 749 751 754 757 760 764 767 770 772 775 778 780 783 786 790 793 795 797 799 800 802 804 806 808 810 812 814 816 817 816 816 817 818 818 818 818 818 818 819 820 822 824 824 825 825 825 827 830 830 829 829 830 834 843 851 852 854 848 838 837 838 834 831 831 831 831 832 834 834 831 831 833 836 838 840 841 840 839 838 837 836 840 845
733 736 739 740 743 747 749 751 755 758 762 765 768 771 774 777 779 782 785 788 792 794 797 798 800 802 804 806 808 810 812 814 816 816 814 816 817 817 818 818 817 818 817 818 819 820 823 825 826 825 827 830 832 832 832 831 832 837 846 852 849 847 839 831 832 832 830 828 827 830 831 831 831 832 830 833 839 837 838 843 845 843 841 840 839 840 842 845
732 734 737 739 741 745 746 748 753 756 760 764 766 769 772 775 778 780 783 787 790 793 796 798 800 801 804 806 808 811 812 815 817 813 812 815 816 816 818 817 817 818 817 817 818 819 822 826 827 826 829 833 835 837 836 834 834 838 845 849 844 838 834 829 831 829 826 825 825 829 830 830 830 830 830 833 839 838 836 840 843 844 845 843 841 842 843 845
732 733 736 738 740 743 744 747 751 754 758 762 765 768 771 773 776 779 782 785 788 792 795 797 799 800 804 805 809 811 812 818 815 808 810 813 815 816 817 817 817 817 817 817 818 820 822 826 828 827 831 836 838 840 840 836 836 839 841 844 837 834 833 828 828 827 825 826 825 826 830 831 829 829 831 833 840 840 835 833 833 837 842 843 842 843 843 845
732 733 736 737 739 741 742 745 749 752 756 759 763 766 769 772 775 778 780 784 787 791 793 796 799 801 804 805 809 810 814 823 811 802 809 812 814 816 816 817 817 817 817 817 819 820 823 825 827 829 834 838 841 843 841 835 836 840 838 836 833 833 834 826 825 827 825 826 826 827 828 828 828 830 831 832 835 834 828 827 827 830 835 837 839 841 843 845
731 733 736 737 738 740 742 744 747 750 755 758 762 765 768 771 774 777 779 782 786 789 792 795 798 800 803 805 809 810 814 818 805 800 807 809 812 814 815 817 817 817 816 817 818 820 823 826 829 834 838 840 843 844 839 834 836 842 838 832 832 832 832 826 825 826 825 827 827 826 824 825 829 830 830 830 827 824 822 823 826 828 831 832 835 839 841 843
730 732 735 736 737 738 740 742 745 748 753 757 760 763 766 769 772 776 778 781 784 788 791 794 797 799 802 805 809 811 813 809 801 801 804 806 811 813 815 817 816 816 815 816 817 820 824 827 831 836 841 843 844 842 837 835 837 843 840 832 831 831 830 827 826 826 825 826 826 824 823 825 828 828 830 829 823 822 822 822 825 827 830 833 836 838 839 840
729 732 733 734 735 736 738 741 743 747 751 755 759 761 764 768 771 774 777 780 783 787 790 793 796 798 801 805 808 813 813 806 801 802 803 806 810 812 815 816 816 816 814 815 816 819 823 829 833 835 842 843 842 840 837 839 840 841 839 832 830 829 828 827 826 826 825 826 827 826 825 825 826 827 829 827 822 822 823 823 825 828 832 835 836 837 838 839
728 730 731 732 733 735 737 739 741 744 749 753 757 760 762 766 770 773 776 779 782 786 789 792 795 797 801 804 808 813 810 803 802 802 803 806 808 811 814 814 815 815 814 815 815 818 823 830 833 833 839 842 841 839 837 844 845 837 835 831 829 828 826 827 826 825 826 826 828 828 827 827 827 828 827 822 822 823 823 824 825 828 832 834 835 836 837 838
727 728 730 731 732 733 735 737 739 741 746 750 754 759 762 764 768 772 774 778 782 785 787 791 794 797 802 804 809 812 804 801 803 801 802 805 808 811 813 813 814 814 814 815 816 818 821 827 831 831 836 839 841 839 838 845 844 835 835 832 829 828 826 827 826 826 827 827 828 828 829 829 827 830 827 820 822 824 824 826 827 828 831 832 834 835 835 837
725 727 728 729 731 732 733 735 738 740 744 746 751 756 760 763 767 771 774 778 781 784 786 789 793 797 800 803 808 808 801 800 803 801 803 806 807 808 811 812 813 813 813 815 818 818 820 825 828 831 836 839 840 839 838 840 839 835 835 833 830 829 828 827 826 827 827 827 827 827 829 830 829 829 824 819 822 824 824 827 828 828 829 831 832 833 835 835
723 725 726 728 729 731 733 735 737 740 743 745 749 754 759 762 765 770 773 778 781 783 785 788 793 796 799 804 805 802 800 802 803 803 804 805 807 808 810 812 813 813 812 814 817 818 819 823 827 833 836 837 841 843 840 837 836 835 835 836 833 830 830 828 826 827 827 828 826 827 834 834 830 826 820 819 823 825 825 827 828 828 829 830 831 832 833 833
721 723 724 726 727 729 732 733 736 739 740 744 748 752 757 761 764 769 772 777 780 782 785 788 793 794 799 804 801 799 801 802 802 803 804 806 809 811 812 813 814 814 814 814 816 818 820 823 827 832 834 836 840 840 837 835 836 836 834 835 835 836 833 827 826 827 827 828 825 829 840 837 827 821 818 821 824 825 827 827 828 828 829 830 831 832 832 832
718 720 722 724 725 727 729 731 734 736 739 743 747 751 757 760 763 767 771 775 779 782 785 789 792 795 799 800 797 798 801 802 802 802 804 806 808 811 813 814 815 816 816 816 817 818 821 823 827 832 834 836 838 838 839 838 837 836 835 835 839 842 836 827 828 828 827 829 825 829 841 835 822 819 819 822 823 823 825 826 828 828 829 830 830 831 830 830
716 717 719 722 723 725 727 729 731 733 736 741 746 751 755 759 763 767 770 774 777 780 784 789 793 795 800 800 796 797 799 801 801 801 803 805 807 810 812 813 815 816 816 817 818 819 821 824 828 834 837 837 838 845 847 844 838 835 840 843 845 844 836 828 827 827 826 827 826 830 840 833 821 817 818 822 823 822 823 824 827 827 828 829 829 829 829 828
713 715 717 720 722 724 725 728 730 732 735 739 745 750 754 758 762 766 769 772 777 780 783 790 792 793 800 799 794 796 797 798 799 801 803 805 807 809 812 814 816 817 817 818 818 819 822 824 829 834 838 839 843 848 851 851 845 839 842 846 845 843 838 832 828 827 825 826 827 830 835 830 820 818 819 822 823 822 822 823 825 825 826 827 827 828 827 828
710 711 714 718 720 722 724 727 731 733 735 738 743 748 753 757 761 766 769 772 777 780 782 787 789 793 797 795 793 794 793 794 797 800 802 805 808 808 811 815 816 817 817 818 819 820 823 826 831 836 838 842 844 847 856 862 854 847 845 844 843 841 840 836 830 827 827 827 828 829 832 827 818 818 821 822 823 823 822 821 823 824 824 824 825 825 826 826
706 708 712 715 718 720 723 725 729 733 734 737 742 746 751 755 760 765 770 774 778 784 788 788 789 795 794 788 789 790 789 792 795 797 800 804 807 807 809 813 814 816 817 820 821 823 826 828 832 839 842 844 845 847 856 858 851 848 845 843 843 840 839 839 830 825 827 829 829 831 833 828 819 819 820 821 824 824 821 820 821 822 822 822 823 823 823 823
702 705 709 712 716 718 722 724 727 730 732 736 741 743 747 754 761 767 769 772 776 781 784 782 782 784 782 778 783 786 788 791 794 797 799 802 807 808 809 811 813 815 820 824 825 824 827 831 835 841 844 845 844 844 847 845 840 840 839 839 839 837 837 835 827 824 826 829 832 832 832 827 820 819 819 819 822 823 822 821 821 821 821 821 821 820 820 820
699 702 706 710 713 716 719 722 724 728 730 732 736 738 742 750 761 770 771 768 769 768 768 770 773 773 773 775 780 785 788 791 794 797 799 802 807 809 810 812 815 818 821 825 827 824 825 834 838 838 840 841 841 841 840 838 836 837 838 838 837 837 835 829 826 826 825 828 831 829 830 826 822 820 817 819 822 821 821 820 819 819 819 819 819 818 817 816
695 699 703 706 710 714 717 719 722 727 727 726 729 728 729 733 739 747 755 764 768 765 764 768 771 773 775 777 778 781 786 792 794 797 801 804 806 810 812 813 818 824 823 823 825 823 826 835 836 832 832 835 837 837 836 836 838 839 839 839 839 840 835 828 828 829 827 829 829 830 832 828 824 820 817 820 822 818 816 816 816 816 816 816 815 815 814 813
692 695 700 704 708 711 714 716 719 724 722 719 722 722 721 721 720 724 737 759 770 767 767 769 772 775 776 778 779 779 783 791 796 797 801 804 805 808 811 814 819 824 823 822 825 829 833 835 831 826 826 829 832 834 835 838 839 840 841 842 840 839 836 831 830 830 829 829 829 831 833 827 822 820 818 821 819 814 812 812 812 812 812 813 812 811 812 812
687 691 697 701 705 709 712 713 715 721 718 713 716 721 723 723 724 727 738 758 771 771 771 773 774 776 777 779 780 779 782 788 794 797 798 801 803 805 808 814 819 821 824 823 824 832 835 828 822 821 822 825 831 832 834 838 840 839 840 841 840 838 837 833 830 831 830 831 831 832 832 826 821 819 816 816 815 811 809 810 810 810 809 806 806 807 808 808
680 687 693 697 703 706 708 712 714 717 715 712 715 720 723 724 726 729 739 760 773 773 774 773 774 776 777 778 778 781 785 786 789 794 796 798 801 804 806 810 817 821 823 820 821 825 823 816 815 820 822 824 830 833 834 839 841 839 837 837 835 832 832 830 829 831 831 833 832 832 834 826 818 819 812 808 812 811 809 810 809 808 806 804 804 805 804 803
674 681 687 693 700 702 708 713 711 710 712 713 716 720 724 725 727 727 738 763 777 779 779 775 776 776 774 776 778 782 786 787 787 790 793 795 796 800 804 806 811 818 819 818 821 823 818 813 814 820 824 825 829 832 832 836 841 840 833 829 827 824 826 830 831 832 836 837 831 833 840 830 818 819 813 808 812 810 808 809 806 804 803 803 804 801 800 801
667 674 682 689 694 700 707 707 702 705 712 715 715 721 723 724 729 726 736 763 776 780 782 777 777 774 771 778 780 783 792 791 788 788 791 795 793 795 803 804 805 810 814 816 820 819 815 813 813 818 823 825 829 830 828 830 840 841 829 821 823 823 825 831 831 831 837 839 834 836 840 834 822 812 808 812 812 806 806 807 803 802 801 800 800 796 797 799
659 667 676 683 689 695 697 694 698 702 706 709 713 719 722 723 727 722 738 768 771 770 778 778 776 770 769 777 777 784 795 790 789 792 790 793 793 793 801 805 804 806 807 812 820 816 811 815 816 818 822 826 829 829 824 826 835 835 824 820 822 822 823 827 829 831 834 836 837 838 837 838 832 813 808 817 812 803 803 802 799 799 798 796 795 794 794 795
650 659 669 677 683 685 683 684 692 694 693 701 710 717 719 722 724 722 742 769 765 758 767 772 770 767 770 777 776 782 785 780 788 796 791 793 796 795 800 803 803 805 802 808 819 813 807 812 815 816 822 827 826 822 817 822 829 824 821 824 822 821 823 826 829 833 836 838 839 839 839 842 836 817 812 816 809 802 798 794 792 793 793 793 791 791 791 791
640 651 661 670 677 680 679 678 679 682 687 697 707 714 717 722 727 730 744 758 755 752 757 762 766 771 777 778 779 782 781 779 786 792 793 797 799 797 799 800 800 804 804 805 811 811 809 811 809 810 817 820 818 815 813 816 820 819 823 827 824 827 831 831 833 832 836 841 838 837 838 841 835 817 810 812 807 802 795 789 788 787 789 791 789 788 789 789
630 643 654 663 670 676 680 680 676 680 688 697 706 710 716 726 730 738 749 747 746 751 752 756 762 770 778 780 783 785 782 783 786 790 795 798 799 799 796 796 799 804 807 807 808 811 813 812 810 810 813 813 811 815 817 815 815 817 821 822 823 828 829 832 835 832 839 844 837 837 839 840 837 820 808 808 802 797 793 789 787 784 785 788 788 788 788 789
622 634 646 654 661 666 673 679 680 683 690 697 707 711 718 730 730 735 743 733 735 750 752 756 762 767 773 775 780 784 783 786 787 789 794 795 798 799 796 797 801 807 811 810 811 814 813 813 812 812 814 813 811 817 821 819 817 816 816 819 826 833 832 835 839 838 846 847 838 844 847 842 841 823 802 800 798 796 796 791 785 782 782 783 785 786 787 788
614 627 639 646 653 658 661 666 672 680 689 694 703 712 721 734 733 727 728 724 732 747 748 750 756 761 766 767 771 778 781 785 785 786 791 794 797 796 793 793 796 807 816 813 813 816 813 813 814 813 814 812 811 817 823 823 821 816 816 823 833 843 847 847 847 848 851 846 841 849 849 841 837 819 800 798 794 790 794 793 787 784 783 781 782 785 786 788
608 621 634 642 647 654 656 659 663 673 685 689 698 710 720 732 728 715 717 722 725 731 734 740 746 751 758 763 768 774 779 784 785 786 789 792 798 797 792 791 789 795 807 812 814 816 815 815 813 811 812 811 810 815 821 826 825 819 819 825 834 847 856 857 857 858 853 844 843 850 846 839 831 812 796 793 787 782 788 792 788 785 784 781 782 785 787 788
604 617 631 639 645 651 655 660 664 670 680 685 696 712 719 723 715 705 713 718 715 720 727 734 742 750 755 760 765 768 774 784 785 784 789 794 799 799 793 790 788 787 797 808 811 811 814 815 811 808 810 811 810 811 814 816 820 819 815 819 827 835 843 848 848 848 844 840 845 851 843 830 817 801 792 790 787 785 787 790 789 787 786 786 787 788 787 786
604 616 628 638 645 650 653 657 663 668 675 682 698 711 710 709 707 704 708 710 712 722 729 732 740 751 759 761 763 763 766 778 783 783 789 791 791 792 787 785 787 786 791 802 806 805 807 810 810 812 814 812 810 812 812 811 817 821 817 817 822 821 824 836 842 839 839 841 843 843 834 819 806 794 788 789 789 786 785 787 787 785 786 788 787 786 786 786
607 619 628 635 640 645 650 655 660 664 669 680 698 705 696 691 692 693 694 694 701 712 724 734 740 748 760 763 764 765 762 770 779 782 787 788 785 786 783 780 782 782 780 789 799 801 803 810 814 814 814 812 812 813 811 811 815 821 822 820 821 818 816 829 844 846 845 841 837 835 826 814 808 795 783 783 784 781 782 784 782 781 784 786 783 783 785 785
606 616 626 632 636 640 645 652 657 661 667 677 687 689 684 678 676 678 682 684 690 699 713 730 735 738 751 759 762 762 761 768 777 777 783 788 782 778 780 777 775 777 773 775 787 793 797 810 817 812 810 813 817 815 812 812 813 816 820 817 816 820 819 822 835 845 847 842 834 833 825 813 812 802 785 781 782 777 776 777 778 781 784 784 782 782 783 784
602 614 623 629 633 637 641 649 654 660 669 675 676 675 674 673 670 673 679 682 688 697 708 721 725 726 736 745 751 752 753 762 771 771 776 782 773 765 771 773 771 774 770 767 778 785 788 804 819 817 813 814 815 813 812 814 815 813 814 811 811 820 824 823 829 837 843 841 831 828 827 819 813 802 785 780 779 774 772 772 776 779 779 780 781 781 782 784
599 612 622 626 630 635 640 646 651 661 670 670 669 670 670 670 668 669 675 680 685 692 702 710 713 721 729 731 738 746 746 751 762 766 767 771 766 758 760 765 768 773 770 764 773 782 784 796 814 819 816 814 813 813 814 815 815 815 814 813 811 814 817 818 823 827 831 835 830 825 824 816 805 795 783 776 775 771 769 771 773 774 774 777 779 778 780 782
594 605 619 624 626 633 640 645 652 662 665 659 659 663 663 664 665 665 668 674 677 682 691 699 703 713 725 727 731 740 744 749 757 761 759 760 762 761 758 758 765 771 771 767 770 779 783 790 805 819 819 815 813 812 811 810 811 812 813 815 815 814 816 816 819 822 821 824 827 826 821 805 790 787 779 771 770 766 765 770 771 771 771 775 778 778 779 781
591 603 615 619 622 629 637 647 656 659 655 652 654 658 657 658 663 666 666 669 673 674 677 688 694 702 714 723 727 733 740 749 755 757 758 757 757 759 757 754 761 768 770 771 771 776 784 790 803 818 820 813 810 809 810 808 807 808 809 810 809 810 815 818 822 823 818 817 819 821 817 793 776 778 775 767 765 764 767 772 771 768 770 774 777 778 779 780
589 601 610 614 618 624 633 647 655 652 648 649 652 653 654 656 661 667 668 669 672 672 674 682 689 696 706 714 721 727 734 744 750 750 752 753 750 751 752 751 756 761 764 771 772 774 783 792 803 815 815 810 809 813 818 816 811 811 812 808 807 807 808 811 817 818 817 818 818 822 815 785 766 772 772 766 765 767 773 776 772 770 772 774 776 777 780 781
590 602 610 614 617 619 631 647 652 650 648 648 648 650 651 654 658 664 668 670 671 671 675 681 685 692 700 706 715 725 730 739 747 744 745 751 749 746 749 750 752 757 762 768 771 774 780 787 799 811 813 809 808 812 817 818 814 812 813 810 809 809 807 808 811 811 813 813 814 822 813 779 762 771 773 772 773 773 776 778 774 771 771 772 774 776 779 780
592 602 611 617 618 616 622 635 643 649 651 648 648 650 651 653 655 659 663 664 665 665 669 675 677 681 690 698 705 714 721 731 742 742 741 746 746 744 747 747 747 751 754 755 758 764 773 783 795 808 814 814 814 814 812 814 815 810 810 811 807 807 811 813 813 813 810 804 805 813 802 773 765 775 776 777 778 773 772 776 775 771 769 771 774 776 778 780
592 603 612 618 619 617 619 623 627 637 644 645 648 650 650 653 653 653 655 657 659 659 662 668 670 673 683 692 699 707 710 717 730 739 741 741 743 745 746 745 743 743 744 745 748 755 766 776 783 793 804 808 807 803 799 805 813 809 805 806 804 805 806 805 809 811 805 803 804 799 784 771 771 776 775 774 773 770 768 770 773 773 773 774 775 777 779 780
585 598 610 617 621 623 625 624 622 629 636 640 645 648 649 652 653 652 653 656 658 657 660 665 668 675 685 692 701 709 710 713 722 730 735 737 740 744 745 743 741 740 742 745 748 754 764 772 772 771 778 780 779 780 782 790 802 801 799 802 803 804 803 803 807 803 797 804 803 785 776 778 776 773 770 767 767 768 767 766 768 771 773 775 776 777 780 781
581 591 600 608 616 624 628 628 626 629 633 634 639 644 644 647 651 654 654 654 653 654 660 666 666 674 685 689 698 708 710 714 719 723 729 735 739 745 747 745 744 743 744 746 749 752 760 769 769 765 768 768 766 771 777 781 786 789 793 798 799 802 803 802 800 790 789 799 792 775 776 782 778 772 768 764 764 766 765 765 766 768 770 773 776 778 780 781
582 590 594 594 602 614 622 625 625 628 632 633 635 640 643 645 647 649 651 654 651 647 655 666 665 667 675 679 687 702 709 714 720 723 728 735 741 745 747 749 749 747 746 747 749 750 753 762 767 768 773 771 767 772 779 779 779 783 788 791 794 799 798 794 791 787 788 789 778 771 773 771 772 773 767 763 764 762 762 765 769 770 769 770 773 776 778 781
582 591 598 596 596 604 609 614 619 624 629 633 636 638 641 642 641 642 645 650 650 645 646 658 663 663 667 670 678 693 703 707 715 721 724 729 734 737 743 748 750 751 750 749 752 752 751 759 767 769 773 773 771 777 780 778 779 784 787 787 789 790 786 783 783 785 787 779 770 774 774 765 764 767 763 761 762 761 764 767 768 767 764 766 771 774 776 779
580 585 593 597 601 604 607 613 618 623 629 632 634 635 635 635 635 638 640 640 642 643 642 647 655 660 664 666 670 680 685 685 696 710 718 725 729 730 735 739 743 750 750 749 753 754 752 761 769 769 774 776 776 782 785 781 779 782 785 785 784 783 783 782 781 784 786 779 773 779 779 766 760 759 758 761 763 764 767 766 763 762 762 766 771 773 774 775
581 583 583 589 599 604 609 617 619 623 630 631 631 632 632 631 629 632 637 636 634 636 638 641 651 659 665 667 668 672 674 675 682 694 702 707 713 717 720 727 735 744 748 749 750 751 754 765 770 771 776 776 776 785 791 786 784 786 784 780 778 779 781 782 781 781 781 777 780 787 778 762 758 758 758 763 766 766 765 762 760 760 762 767 768 767 769 769
582 584 582 585 596 603 608 615 619 621 624 623 625 628 627 628 629 628 633 639 636 634 637 642 650 660 666 669 666 665 670 675 680 690 693 694 700 706 710 717 723 729 737 744 747 749 752 759 767 771 773 777 784 789 787 787 793 787 769 760 767 775 778 780 780 777 773 772 777 776 759 750 756 760 760 763 763 762 761 759 757 757 760 765 765 762 762 762